Hereford, TX

8:30 PM CDT on July 23, 2017 (GMT -0500)
Hereford Municipal

Weather History for KHRX - January, 2014

Change the Weather History Date:

Sunday, January 26, 2014

  Actual Average (KCVN) Record (KCVN)
Temperature  
Mean Temperature 46 °F -  
Max Temperature 62 °F 53 °F 74 °F (1952)
Min Temperature 30 °F 25 °F 3 °F (1963)
Degree Days  
Heating Degree Days 19    
Moisture  
Dew Point 18 °F    
Average Humidity 35    
Maximum Humidity 59    
Minimum Humidity 21    
Precipitation  
Precipitation 0.00 in - - ()
Sea Level Pressure  
Sea Level Pressure 29.85 in    
Wind  
Wind Speed 10 mph (NNW)    
Max Wind Speed 29 mph    
Max Gust Speed 32 mph    
Visibility 10 miles    
Events      
Averages and records for this station are not official NWS values.
T = Trace of Precipitation, MM = Missing Value Source: NWS Daily Summary

Daily Weather History Graph

Daily Weather History Graph

Search for Another Location

Airport or City:

Trip Planner

Search our weather history database for the weather conditions in past years. The results will help you decide how hot, cold, wet, or windy it might be!

Date:

Astronomy

Jan. 26, 2014 Rise Set
Actual Time 7:51 AM CST 6:12 PM CST
Civil Twilight 7:24 AM CST 6:39 PM CST
Nautical Twilight 6:54 AM CST 7:09 PM CST
Astronomical Twilight 6:24 AM CST 7:39 PM CST
Moon 3:30 AM CST (1/26) 2:04 PM CST (1/26)
Length of Visible Light 11h 14m
Length of Day
10h 20m
Waning Crescent, 23% of the Moon is Illuminated
Jan 26
Waning Crescent
Jan 30
New
Feb 6
First Quarter
Feb 14
Full
Feb 22
Last Quarter

Hourly Weather History & Observations

Time (CST) Temp. Windchill Dew Point Humidity Pressure Visibility Wind Dir Wind Speed Gust Speed Precip Events Conditions
12:15 AM 33.4 °F 27.3 °F 14.7 °F 46% 29.91 in 10.0 mi SSW 6.9 mph - N/A   Clear
12:35 AM 33.8 °F 26.4 °F 13.1 °F 43% 29.90 in 10.0 mi SSW 9.2 mph - N/A   Clear
12:55 AM 34.3 °F 27.0 °F 10.4 °F 37% 29.88 in 10.0 mi SSW 9.2 mph - N/A   Clear
1:15 AM 31.8 °F 25.4 °F 11.1 °F 42% 29.88 in 10.0 mi SSW 6.9 mph - N/A   Clear
1:35 AM 32.0 °F 27.5 °F 10.0 °F 40% 29.86 in 10.0 mi SSW 4.6 mph - N/A   Clear
1:55 AM 32.0 °F 28.7 °F 9.5 °F 39% 29.86 in 10.0 mi WSW 3.5 mph - N/A   Clear
2:15 AM 32.0 °F 25.6 °F 9.5 °F 39% 29.85 in 10.0 mi West 6.9 mph - N/A   Clear
2:35 AM 30.2 °F 23.4 °F 9.1 °F 41% 29.84 in 10.0 mi WSW 6.9 mph - N/A   Clear
2:55 AM 30.4 °F 24.5 °F 9.3 °F 41% 29.84 in 10.0 mi WSW 5.8 mph - N/A   Clear
3:15 AM 32.9 °F 25.9 °F 9.5 °F 38% 29.84 in 10.0 mi WSW 8.1 mph - N/A   Clear
3:35 AM 32.2 °F 28.9 °F 8.4 °F 37% 29.84 in 10.0 mi WNW 3.5 mph - N/A   Clear
3:55 AM 31.3 °F 25.6 °F 8.1 °F 38% 29.83 in 10.0 mi West 5.8 mph - N/A   Clear
4:15 AM 30.0 °F 22.4 °F 9.9 °F 43% 29.83 in 10.0 mi West 8.1 mph - N/A   Clear
4:35 AM 30.9 °F 24.3 °F 10.2 °F 42% 29.83 in 10.0 mi West 6.9 mph - N/A   Clear
4:55 AM 30.9 °F 24.3 °F 10.0 °F 42% 29.82 in 10.0 mi WNW 6.9 mph - N/A   Clear
5:15 AM 31.1 °F 21.4 °F 10.8 °F 43% 29.82 in 10.0 mi WNW 12.7 mph - N/A   Clear
5:35 AM 35.2 °F 27.6 °F 12.0 °F 38% 29.81 in 10.0 mi WNW 10.4 mph - N/A   Clear
5:55 AM 36.9 °F 29.6 °F 13.5 °F 38% 29.82 in 10.0 mi NW 10.4 mph - N/A   Clear
6:15 AM 38.3 °F 29.7 °F 13.6 °F 37% 29.82 in 10.0 mi NW 15.0 mph - N/A   Clear
6:35 AM 38.1 °F 30.2 °F 14.2 °F 38% 29.82 in 10.0 mi NW 12.7 mph - N/A   Clear
6:55 AM 38.7 °F 29.8 °F 15.1 °F 38% 29.82 in 10.0 mi NNW 16.1 mph - N/A   Clear
7:15 AM 40.1 °F 31.3 °F 16.5 °F 39% 29.83 in 10.0 mi NNW 17.3 mph - N/A   Clear
7:35 AM 40.1 °F 31.6 °F 17.6 °F 40% 29.83 in 10.0 mi NNW 16.1 mph - N/A   Clear
7:55 AM 40.3 °F 32.2 °F 18.7 °F 42% 29.84 in 10.0 mi NNW 15.0 mph - N/A   Clear
8:15 AM 41.5 °F 32.9 °F 19.4 °F 41% 29.84 in 10.0 mi NNW 18.4 mph - N/A   Clear
8:35 AM 43.5 °F 35.5 °F 19.8 °F 39% 29.85 in 10.0 mi NNW 18.4 mph 24.2 mph N/A   Clear
8:55 AM 45.0 °F 37.9 °F 20.1 °F 37% 29.86 in 10.0 mi NNW 16.1 mph - N/A   Clear
9:15 AM 47.5 °F - 20.3 °F 34% 29.87 in 10.0 mi North 18.4 mph - N/A   Clear
9:35 AM 50.0 °F - 20.5 °F 31% 29.87 in 10.0 mi North 23.0 mph - N/A   Clear
9:55 AM 51.8 °F - 20.3 °F 29% 29.88 in 10.0 mi North 26.5 mph 32.2 mph N/A   Clear
10:15 AM 52.9 °F - 20.7 °F 28% 29.89 in 10.0 mi North 24.2 mph 29.9 mph N/A   Clear
10:35 AM 54.0 °F - 21.4 °F 28% 29.90 in 10.0 mi North 26.5 mph 29.9 mph N/A   Clear
10:55 AM 55.4 °F - 21.9 °F 27% 29.89 in 10.0 mi North 28.8 mph 32.2 mph N/A   Clear
11:15 AM 54.9 °F - 21.9 °F 28% 29.89 in 10.0 mi North 25.3 mph 32.2 mph N/A   Clear
11:35 AM 56.7 °F - 22.3 °F 26% 29.90 in 10.0 mi North 23.0 mph 31.1 mph N/A   Clear
11:55 AM 57.7 °F - 23.0 °F 26% 29.89 in 10.0 mi North 21.9 mph 29.9 mph N/A   Clear
12:15 PM 58.8 °F - 23.4 °F 26% 29.88 in 10.0 mi North 23.0 mph 27.6 mph N/A   Clear
12:35 PM 59.7 °F - 23.4 °F 25% 29.87 in 10.0 mi North 20.7 mph 27.6 mph N/A   Clear
12:55 PM 59.9 °F - 23.4 °F 25% 29.86 in 10.0 mi North 18.4 mph 26.5 mph N/A   Clear
1:15 PM 60.4 °F - 23.5 °F 24% 29.85 in 10.0 mi North 16.1 mph 23.0 mph N/A   Clear
1:35 PM 61.5 °F - 23.7 °F 24% 29.84 in 10.0 mi North 11.5 mph 21.9 mph N/A   Clear
1:55 PM 61.5 °F - 23.0 °F 23% 29.83 in 10.0 mi North 13.8 mph 19.6 mph N/A   Clear
2:15 PM 61.5 °F - 22.8 °F 23% 29.81 in 10.0 mi North 13.8 mph 23.0 mph N/A   Clear
2:35 PM 62.4 °F - 22.8 °F 22% 29.81 in 10.0 mi North 8.1 mph 17.3 mph N/A   Clear
2:55 PM 62.1 °F - 22.3 °F 22% 29.81 in 10.0 mi NNE 5.8 mph 16.1 mph N/A   Clear
3:15 PM 61.5 °F - 22.1 °F 22% 29.81 in 10.0 mi WNW 4.6 mph - N/A   Clear
3:35 PM 61.9 °F - 22.1 °F 22% 29.81 in 10.0 mi NNW 4.6 mph - N/A   Clear
3:55 PM 62.1 °F - 22.1 °F 22% 29.80 in 10.0 mi NW 3.5 mph - N/A   Clear
4:15 PM 61.7 °F - 21.7 °F 22% 29.80 in 10.0 mi WNW 3.5 mph - N/A   Clear
4:35 PM 61.9 °F - 21.6 °F 21% 29.80 in 10.0 mi NW 5.8 mph - N/A   Clear
4:55 PM 61.7 °F - 21.7 °F 22% 29.80 in 10.0 mi North 3.5 mph - N/A   Clear
5:15 PM 61.3 °F - 21.2 °F 21% 29.80 in 10.0 mi Calm Calm - N/A   Clear
5:35 PM 60.1 °F - 20.8 °F 22% 29.81 in 10.0 mi Calm Calm - N/A   Clear
5:55 PM 58.6 °F - 20.8 °F 23% 29.81 in 10.0 mi Calm Calm - N/A   Clear
6:15 PM 57.6 °F - 21.2 °F 24% 29.81 in 10.0 mi Calm Calm - N/A   Clear
6:35 PM 53.4 °F - 21.0 °F 28% 29.82 in 10.0 mi Calm Calm - N/A   Clear
6:55 PM 51.3 °F - 21.0 °F 31% 29.82 in 10.0 mi ESE 5.8 mph - N/A   Clear
7:15 PM 47.3 °F - 19.4 °F 33% 29.83 in 10.0 mi SE 8.1 mph - N/A   Clear
7:35 PM 45.1 °F 41.4 °F 20.3 °F 37% 29.83 in 10.0 mi SE 6.9 mph - N/A   Clear
7:55 PM 44.2 °F 42.7 °F 20.5 °F 39% 29.83 in 10.0 mi SE 3.5 mph - N/A   Clear
8:15 PM 40.5 °F 37.3 °F 19.0 °F 42% 29.83 in 10.0 mi ESE 4.6 mph - N/A   Clear
8:35 PM 39.0 °F 35.7 °F 18.3 °F 43% 29.84 in 10.0 mi East 4.6 mph - N/A   Clear
8:55 PM 37.4 °F 32.8 °F 18.0 °F 45% 29.84 in 10.0 mi East 5.8 mph - N/A   Clear
9:15 PM 36.5 °F 32.7 °F 17.6 °F 46% 29.84 in 10.0 mi East 4.6 mph - N/A   Clear
9:35 PM 36.0 °F 29.6 °F 18.5 °F 49% 29.85 in 10.0 mi East 8.1 mph - N/A   Clear
9:55 PM 36.7 °F 32.0 °F 19.4 °F 50% 29.86 in 10.0 mi East 5.8 mph - N/A   Clear
10:15 PM 37.0 °F 31.6 °F 20.7 °F 52% 29.87 in 10.0 mi East 6.9 mph - N/A   Clear
10:35 PM 35.4 °F 29.7 °F 19.2 °F 52% 29.88 in 10.0 mi East 6.9 mph - N/A   Clear
10:55 PM 34.0 °F 28.8 °F 18.7 °F 54% 29.89 in 10.0 mi NE 5.8 mph - N/A   Clear
11:15 PM 36.9 °F 30.7 °F 20.8 °F 52% 29.91 in 10.0 mi NE 8.1 mph - N/A   Clear
11:35 PM 32.4 °F 24.0 °F 19.6 °F 59% 29.93 in 10.0 mi NNE 10.4 mph - N/A   Clear
11:55 PM 39.6 °F 28.5 °F 22.5 °F 50% 29.98 in 10.0 mi NNE 26.5 mph 32.2 mph N/A   Clear